This is the latest recevied weather packets stored in our database for station/object NR6G-5. If no packets are shown the sender has not sent any weather packets the latest 10 day(s).
| Time | Temp. | Humidity | Pressure | Rain* | Wind** | Luminosity | Snow |
|---|---|---|---|---|---|---|---|
| 1777621098 | 17.22° C | 63% | 1011.8 hPa | 0 mm | - | - | - |
| 1777620171 | 17.22° C | 63% | 1011.7 hPa | 0 mm | - | - | - |
| 1777619872 | 17.22° C | 63% | 1011.7 hPa | 0 mm | - | - | - |
| 1777619572 | 17.22° C | 64% | 1011.7 hPa | 0 mm | - | - | - |
| 1777619272 | 17.22° C | 64% | 1011.6 hPa | 0 mm | - | - | - |
| 1777618956 | 17.22° C | 65% | 1011.6 hPa | 0 mm | - | - | - |
| 1777618654 | 17.22° C | 65% | 1011.5 hPa | 0 mm | - | - | - |
| 1777618355 | 16.67° C | 66% | 1011.5 hPa | 0 mm | - | - | - |
| 1777618055 | 17.22° C | 66% | 1011.4 hPa | 0 mm | - | - | - |
| 1777617755 | 17.22° C | 65% | 1011.3 hPa | 0 mm | - | - | - |
| 1777617455 | 17.22° C | 65% | 1011.4 hPa | 0 mm | - | - | - |
| 1777616854 | 17.22° C | 64% | 1011.3 hPa | 0 mm | - | - | - |
| 1777616556 | 17.22° C | 65% | 1011.3 hPa | 0 mm | - | - | - |
| 1777616255 | 17.22° C | 64% | 1011.2 hPa | 0 mm | - | - | - |
| 1777615956 | 17.22° C | 64% | 1011.2 hPa | 0 mm | - | - | - |
| 1777615354 | 17.78° C | 63% | 1011.2 hPa | 0 mm | - | - | - |
| 1777614755 | 18.33° C | 63% | 1011.1 hPa | 0 mm | - | - | - |
| 1777614458 | 18.33° C | 62% | 1011.1 hPa | 0 mm | - | - | - |
| 1777614155 | 19.44° C | 60% | 1011 hPa | 0 mm | - | - | - |
| 1777613854 | 20.56° C | 55% | 1011 hPa | 0 mm | - | - | - |
| 1777613555 | 20.56° C | 53% | 1010.9 hPa | 0 mm | - | - | - |
| 1777613255 | 20.56° C | 55% | 1010.9 hPa | 0 mm | - | - | - |
| 1777612888 | 21.11° C | 52% | 1010.8 hPa | 0 mm | - | - | - |
| 1777612587 | 21.67° C | 51% | 1010.7 hPa | 0 mm | - | - | - |
| 1777611988 | 21.67° C | 49% | 1010.6 hPa | 0 mm | - | - | - |
* Rain latest hour (hover to see other rain measurements)
** Current wind speed in m/s (hover to see current wind gust speed)